Torna al catalogo

STARLINK-30412

AttivoComunicazioniVLEO
NORAD 57854·PAYLOAD·🇺🇸 United States

Lanciato Sep 12, 2023 da Vandenberg Space Force Base

Loading…

Prossimi Passaggi (prossime 24 ore)

TLE

AggiornatoSource: CelesTrak SupGP

Epoca: Sep 15, 2026, 02:31 UTC

1 57854C 23141Q   26258.10534722  .00046683  00000+0  13793-2 0  2586
2 57854  53.1562 122.6718 0001251  82.9966 199.2391 15.34366051    18

Traccia STARLINK-30412 in tempo reale con AllMySat

Download on the App Store